Regional Weather Roundup
Issued by NWS

Home | Current Version | Previous Version | Graphics & Text | Print | Product List | Glossary On
Versions: 1 2 3 4 5 6 7 8 9 10 11 12 13 14 15 16 17 18 19 20 21 22 23 24 25 26 27 28 29 30 31 32 33 34 35 36 37 38 39 40 41 42 43 44 45 46 47 48 49 50
119
ASUS43 KMKX 221520
RWRWI

WISCONSIN REGIONAL WEATHER ROUNDUP
NATIONAL WEATHER SERVICE MILWAUKEE/SULLIVAN WI
900 AM CST SUN JAN 22 2017

NOTE: "FAIR" INDICATES FEW OR NO CLOUDS BELOW 12,000 FEET WITH NO
SIGNIFICANT WEATHER AND/OR OBSTRUCTIONS TO VISIBILITY.

WIZ001-002-006>008-014>016-023>028-221600-
NORTHWEST WISCONSIN

CITY           SKY/WX    TMP DP  RH WIND       PRES   REMARKS
SUPERIOR ARPT  CLOUDY    35  35 100 CALM      29.66S FOG
ASHLAND        FOG       35  34  96 N7        29.65R VSB<1/4 WCI  29
HAYWARD        CLOUDY    35  33  92 CALM      29.63R FOG
SIREN          CLOUDY    35  34  99 NW3       29.67R FOG
CUMBERLAND     CLOUDY    32  32 100 NW6       29.65R FOG     WCI  26
RICE LAKE      FOG       34  34 100 NW3       29.66R VSB 1/2
CHETEK         FOG       34  34 100 CALM      29.65R VSB 1
LADYSMITH      FOG       34  34  99 NW5       29.64R VSB 1   WCI  30
EAU CLAIRE     CLOUDY    34  34 100 W5        29.64R FOG     WCI  30
MENOMONIE        N/A    N/A N/A N/A MISG        N/A
NEW RICHMOND   FOG       34  34 100 W5        29.67R VSB 1/4 WCI  30
OSCEOLA        CLOUDY    35  35 100 NW5       29.69S FOG     WCI  31
$$

WIZ003>005-009-010-017-018-221600-
NORTH CENTRAL WISCONSIN

CITY           SKY/WX    TMP DP  RH WIND       PRES   REMARKS
MANITOWISH WTR CLOUDY    33  33 100 CALM      29.59R
ARBOR VITAE    FOG       37  36  98 CALM      29.59R VSB 3/4
WOODRUFF       FOG       37  36  98 CALM      29.59R VSB 3/4
RHINELANDER    FOG       36  36 100 N3        29.60R VSB 1/2
EAGLE RIVER    FOG       34  34 100 CALM      29.59R VSB 1/4
LAND O LAKES   FOG       35  35 100 CALM      29.60R VSB 1/4
PHILLIPS       CLOUDY    34  34 100 CALM      29.61R FOG
TOMAHAWK       FOG       34  33  97 CALM      29.60R VSB 3/4
MEDFORD        FOG       33  33 100 CALM      29.61R VSB<1/4
MERRILL        CLOUDY    34  34 100 CALM        N/A  FOG
$$

WIZ029-030-035-036-043>047-221600-
CENTRAL WISCONSIN

CITY           SKY/WX    TMP DP  RH WIND       PRES   REMARKS
WAUSAU         CLOUDY    34  34 100 CALM      29.60R FOG
MOSINEE        FOG       34  34 100 CALM      29.61R VSB 1/4
MARSHFIELD     FOG       34  33  96 NW5       29.60R VSB 1/4 WCI  30
STEVENS POINT  FOG       34  34 100 CALM      29.62R VSB 1
WAUPACA        FOG       37  37  97 CALM      29.63R VSB 1/4
WAUTOMA        FOG       35  34  96 CALM      29.65R VSB 1/4
WISC RAPIDS    CLOUDY    36  36 100 NW3       29.63R FOG
CAMP DOUGLAS   FOG       36  36 100 CALM      29.64R VSB 1/4
$$

WIZ011>013-019>022-031-037>040-048>050-221600-
NORTHEAST WISCONSIN

CITY           SKY/WX    TMP DP  RH WIND       PRES   REMARKS
ANTIGO         FOG       33  33 100 CALM      29.60R VSB 1/2
SHAWANO        FOG       36  35  96 CALM      29.63R VSB 1/2
OCONTO         CLOUDY    33  33 100 CALM      29.62R VSB 1/4
STURGEON BAY   FOG       37  37 100 CALM      29.63R VSB 1/4
GREEN BAY      FOG       37  37 100 S5        29.63R VSB 1/4 WCI  33
MANITOWOC      CLOUDY    37  37 100 MISG      29.65R FOG
APPLETON       FOG       36  36 100 VRB5      29.61R VSB 1/8 WCI  32
CLINTONVILLE   FOG       34  34 100 CALM      29.63R VSB 1/4
OSHKOSH        FOG       36  36 100 CALM      29.64R VSB<1/4
$$

WIZ032>034-041-042-053>061-221600-
SOUTHWEST WISCONSIN

CITY           SKY/WX    TMP DP  RH WIND       PRES   REMARKS
LA CROSSE      FOG       38  35  89 CALM      29.66R VSB 1/2
SPARTA         FOG       35  35 100 CALM      29.66R VSB 1/4
VIROQUA        CLOUDY    34  34 100 SW3       29.64R
BOSCOBEL       CLOUDY    37  36  96 CALM      29.66R FOG
PRAIRIE DU CHI FOG       34  33  96 CALM      29.65R VSB 3/4
PLATTEVILLE    CLOUDY    35  35 100 N3        29.65R
$$

WIZ056-057-062-063-064-067-068-221600-
SOUTH CENTRAL WISCONSIN

CITY           SKY/WX    TMP DP  RH WIND       PRES   REMARKS
REEDSBURG      CLOUDY    36  36 100 CALM      29.64R FOG
BARABOO/DELLS  FOG       36  36  99 CALM      29.63R VSB 1
LONE ROCK      CLOUDY    37  36  96 CALM      29.65R FOG
MINERAL POINT  CLOUDY    36  36 100 CALM      29.64R FOG
MADISON        CLOUDY    38  36  92 CALM      29.65R FOG
MIDDLETON      CLOUDY    37  37 100 CALM      29.65R VSB 3/4
WATERTOWN      FOG       36  36 100 CALM      29.64R VSB 1/2
MONROE         CLOUDY    34  34 100 CALM      29.63R FOG
JANESVILLE     CLOUDY    37  37 100 CALM      29.65R FOG
$$

WIZ051-052-058>065-066-070>072-221600-
SOUTHEAST WISCONSIN

CITY           SKY/WX    TMP DP  RH WIND       PRES   REMARKS
MILWAUKEE      CLOUDY    42  39  89 NW3       29.64R FOG
WAUKESHA       FOG       37  37 100 SW2       29.65R VSB 1
MILWAUKEE/TIMM CLOUDY    39  37  93 NW6       29.64R FOG     WCI  35
RACINE         CLOUDY    40  39  97 CALM      29.66R FOG
KENOSHA        CLOUDY    40  38  93 W5        29.64R FOG
FOND DU LAC    FOG       36  34  92 CALM      29.64R VSB 1/4
SHEBOYGAN      FOG       38  37  97 SW5       29.64R VSB 1/4 WCI  34
WEST BEND      CLOUDY    37  37 100 CALM      29.64R FOG
JUNEAU         FOG       37  37 100 SW3       29.65R VSB<1/4
$$

LSZ147-162-221600-
LAKE SUPERIOR

STATION/POSITION TIME  TEMP    WIND        PRES    WAVE
                       AIR SEA DIR/SP/G            HT/PER
                 (UTC) (F)     (DEG/KT/KT) (MB)    (FT/S)
DEVILS ISLAND    1500   35      20/  8/  9 1004.8R
PORT WING        1430   34      40/  5/  6 1004.4R
SAXON HARBOR     1440   33      CALM  /  1 1003.7R
$$

LMZ867-665-643>646-221600-
LAKE MICHIGAN

STATION/POSITION TIME  TEMP    WIND        PRES    WAVE
                       AIR SEA DIR/SP/G            HT/PER
                 (UTC) (F)     (DEG/KT/KT) (MB)    (FT/S)
NORTHPORT PIER   1440   34        CALM     1003.0R
SISTER BAY       1405   36        CALM       N/A
KEWAUNEE LAKESHO 1454   38     280/  2/  4 1003.0R
SHEBOYGAN LAKESH 1500   40     260/  5/  6 1003.8R
PORT WASHINGTON  1440   42     270/  3/  4 1004.7R
KENOSHA   LAKESH 1500   40     310/  2/  3 1004.1
$$

TC  - TEMPERATURE IN CELSIUS
VSB - VISIBILITY IN STATUTE MILES
WCI - WIND CHILL INDEX
HX  - HEAT INDEX





USA.gov is the U.S. government's official web portal to all federal, state and local government web resources and services.